| time (UTC) | temp C | wind direction | speed KPH | gust KPH | rain 1hr cm | rain 24hr cm | rain mn cm | humidity % | barometer mb |
| 20260901191956 | 17 | 105 | 0.0 | 0.0 | 0.00 | 0.00 | 0.00 | 81 | 1009.0 |
| 20260901190956 | 17 | 105 | 0.0 | 0.0 | 0.00 | 0.00 | 0.00 | 82 | 1009.3 |
| 20260901185953 | 17 | 105 | 0.0 | 0.0 | 0.00 | 0.00 | 0.00 | 83 | 1009.3 |
| 20260901184931 | 17 | 105 | 0.0 | 0.0 | 0.00 | 0.00 | 0.00 | 82 | 1009.3 |
| 20260901183914 | 17 | 106 | 0.0 | 0.0 | 0.00 | 0.00 | 0.00 | 83 | 1009.3 |
| 20260901182846 | 17 | 105 | 0.0 | 0.0 | 0.00 | 0.00 | 0.00 | 83 | 1009.3 |
| 20260901181818 | 17 | 104 | 0.0 | 0.0 | 0.00 | 0.00 | 0.00 | 82 | 1009.1 |
| 20260901180748 | 17 | 105 | 0.0 | 0.0 | 0.00 | 0.00 | 0.00 | 81 | 1009.1 |
| 20260901175733 | 17 | 105 | 0.0 | 0.0 | 0.00 | 0.00 | 0.00 | 80 | 1009.2 |
| 20260901174730 | 17 | 103 | 0.0 | 0.0 | 0.00 | 0.00 | 0.00 | 80 | 1009.0 |
| 20260901173727 | 17 | 118 | 0.0 | 0.0 | 0.00 | 0.00 | 0.00 | 82 | 1009.1 |
| 20260901172708 | 17 | 111 | 0.0 | 0.0 | 0.00 | 0.00 | 0.00 | 82 | 1008.9 |
| 20260901171632 | 17 | 108 | 0.0 | 0.0 | 0.00 | 0.00 | 0.00 | 82 | 1008.8 |
| 20260901170612 | 17 | 100 | 0.0 | 0.0 | 0.00 | 0.00 | 0.00 | 82 | 1008.8 |
| 20260901165611 | 16 | 103 | 0.0 | 0.0 | 0.00 | 0.00 | 0.00 | 83 | 1008.9 |
| 20260901164557 | 16 | 103 | 0.0 | 0.0 | 0.00 | 0.00 | 0.00 | 84 | 1009.1 |
| 20260901163547 | 16 | 101 | 0.0 | 0.0 | 0.00 | 0.00 | 0.00 | 85 | 1009.0 |
| 20260901162521 | 16 | 101 | 0.0 | 1.6 | 0.00 | 0.00 | 0.00 | 87 | 1009.0 |
| 20260901161515 | 15 | 109 | 0.0 | 0.0 | 0.00 | 0.00 | 0.00 | 87 | 1009.1 |
| 20260901160457 | 15 | 105 | 0.0 | 0.0 | 0.00 | 0.00 | 0.00 | 88 | 1009.3 |
| 20260901155454 | 15 | 110 | 0.0 | 0.0 | 0.00 | 0.00 | 0.00 | 90 | 1009.2 |
| 20260901154454 | 15 | 112 | 0.0 | 0.0 | 0.00 | 0.00 | 0.00 | 90 | 1009.4 |
| 20260901153454 | 14 | 105 | 0.0 | 0.0 | 0.00 | 0.00 | 0.00 | 91 | 1009.3 |
| 20260901152438 | 14 | 105 | 0.0 | 0.0 | 0.00 | 0.00 | 0.00 | 92 | 1009.4 |
| 20260901151403 | 14 | 110 | 0.0 | 0.0 | 0.00 | 0.00 | 0.00 | 92 | 1009.3 |
| 20260901150359 | 13 | 108 | 0.0 | 0.0 | 0.00 | 0.00 | 0.00 | 94 | 1009.3 |
| 20260901145348 | 13 | 106 | 0.0 | 0.0 | 0.00 | 0.00 | 0.00 | 96 | 1009.4 |
| 20260901144337 | 13 | 107 | 0.0 | 0.0 | 0.00 | 0.00 | 0.00 | 97 | 1009.2 |
| 20260901143315 | 12 | 107 | 0.0 | 0.0 | 0.00 | 0.00 | 0.00 | 98 | 1009.2 |
| 20260901142248 | 12 | 113 | 0.0 | 0.0 | 0.00 | 0.00 | 0.00 | 98 | 1009.1 |
| 20260901141212 | 12 | 108 | 0.0 | 0.0 | 0.00 | 0.00 | 0.00 | 98 | 1009.0 |
| 20260901140145 | 12 | 108 | 0.0 | 0.0 | 0.00 | 0.00 | 0.00 | 97 | 1008.9 |
| 20260901135103 | 11 | 108 | 0.0 | 0.0 | 0.00 | 0.00 | 0.00 | 97 | 1008.7 |
| 20260901134040 | 11 | 108 | 0.0 | 0.0 | 0.00 | 0.00 | 0.00 | 97 | 1008.6 |
| 20260901133026 | 11 | 110 | 0.0 | 0.0 | 0.00 | 0.00 | 0.00 | 97 | 1008.7 |
| 20260901132024 | 11 | 110 | 0.0 | 0.0 | 0.00 | 0.00 | 0.00 | 97 | 1008.8 |
| 20260901131023 | 11 | 109 | 0.0 | 0.0 | 0.00 | 0.00 | 0.00 | 97 | 1008.7 |
| 20260901130000 | 11 | 109 | 0.0 | 0.0 | 0.00 | 0.00 | 0.00 | 97 | 1008.4 |
| 20260901124930 | 11 | 109 | 0.0 | 0.0 | 0.00 | 0.00 | 0.00 | 97 | 1008.4 |
| 20260901123913 | 11 | 109 | 0.0 | 0.0 | 0.00 | 0.00 | 0.00 | 97 | 1008.7 |
| 20260901122855 | 12 | 109 | 0.0 | 0.0 | 0.00 | 0.00 | 0.00 | 97 | 1008.5 |
| 20260901121831 | 12 | 110 | 0.0 | 0.0 | 0.00 | 0.00 | 0.00 | 97 | 1008.2 |
| 20260901120819 | 11 | 109 | 0.0 | 0.0 | 0.00 | 0.00 | 0.00 | 97 | 1008.5 |
| 20260901115819 | 12 | 109 | 0.0 | 0.0 | 0.00 | 0.00 | 0.00 | 97 | 1008.2 |
| 20260901114757 | 12 | 109 | 0.0 | 0.0 | 0.00 | 0.00 | 0.00 | 97 | 1008.3 |
| 20260901113750 | 12 | 109 | 0.0 | 0.0 | 0.00 | 0.00 | 0.00 | 97 | 1008.1 |
| 20260901112739 | 12 | 109 | 0.0 | 0.0 | 0.00 | 0.00 | 0.00 | 96 | 1007.8 |
| 20260901111731 | 12 | 109 | 0.0 | 0.0 | 0.00 | 0.00 | 0.00 | 96 | 1007.7 |
| 20260901110728 | 12 | 109 | 0.0 | 0.0 | 0.00 | 0.00 | 0.00 | 96 | 1007.9 |
| 20260901105700 | 12 | 109 | 0.0 | 0.0 | 0.00 | 0.00 | 0.00 | 96 | 1007.8 |
| 20260901104639 | 12 | 110 | 0.0 | 0.0 | 0.00 | 0.00 | 0.00 | 96 | 1007.9 |
| 20260901103634 | 12 | 109 | 0.0 | 0.0 | 0.00 | 0.00 | 0.00 | 96 | 1007.8 |
| 20260901102628 | 12 | 109 | 0.0 | 0.0 | 0.00 | 0.00 | 0.00 | 96 | 1007.9 |
| 20260901101617 | 12 | 109 | 0.0 | 0.0 | 0.00 | 0.00 | 0.00 | 96 | 1007.7 |
| 20260901100615 | 12 | 109 | 0.0 | 0.0 | 0.00 | 0.00 | 0.00 | 95 | 1007.7 |
| 20260901095549 | 12 | 109 | 0.0 | 0.0 | 0.00 | 0.00 | 0.00 | 95 | 1007.5 |
| 20260901094522 | 12 | 108 | 0.0 | 0.0 | 0.00 | 0.00 | 0.00 | 95 | 1007.4 |
| 20260901093517 | 12 | 108 | 0.0 | 0.0 | 0.00 | 0.00 | 0.00 | 95 | 1007.5 |
| 20260901092459 | 12 | 108 | 0.0 | 0.0 | 0.00 | 0.00 | 0.00 | 95 | 1007.4 |
| 20260901091458 | 13 | 108 | 0.0 | 0.0 | 0.00 | 0.00 | 0.00 | 94 | 1007.5 |
| 20260901090440 | 13 | 108 | 0.0 | 0.0 | 0.00 | 0.00 | 0.00 | 94 | 1007.4 |
| 20260901085407 | 13 | 108 | 0.0 | 0.0 | 0.00 | 0.00 | 0.00 | 93 | 1007.3 |
| 20260901084407 | 13 | 108 | 0.0 | 0.0 | 0.00 | 0.00 | 0.00 | 93 | 1007.3 |
| 20260901083342 | 13 | 108 | 0.0 | 0.0 | 0.00 | 0.00 | 0.00 | 92 | 1007.4 |
| 20260901082317 | 13 | 108 | 0.0 | 0.0 | 0.00 | 0.00 | 0.00 | 92 | 1007.4 |
| 20260901081247 | 13 | 108 | 0.0 | 0.0 | 0.00 | 0.00 | 0.00 | 92 | 1007.3 |
| 20260901080218 | 13 | 109 | 0.0 | 0.0 | 0.00 | 0.00 | 0.00 | 92 | 1007.2 |
| 20260901075211 | 13 | 109 | 0.0 | 0.0 | 0.00 | 0.00 | 0.00 | 91 | 1007.0 |
| 20260901074208 | 13 | 108 | 0.0 | 0.0 | 0.00 | 0.00 | 0.00 | 91 | 1007.0 |
| 20260901073149 | 13 | 108 | 0.0 | 0.0 | 0.00 | 0.00 | 0.00 | 90 | 1007.0 |
| 20260901072130 | 13 | 108 | 0.0 | 0.0 | 0.00 | 0.00 | 0.00 | 89 | 1006.8 |
| 20260901071102 | 14 | 108 | 0.0 | 0.0 | 0.00 | 0.00 | 0.00 | 88 | 1006.9 |
| 20260901070038 | 15 | 108 | 0.0 | 0.0 | 0.00 | 0.00 | 0.00 | 87 | 1006.9 |
| 20260901065009 | 15 | 108 | 0.0 | 0.0 | 0.00 | 0.00 | 0.00 | 87 | 1006.8 |
| 20260901063418 | 15 | 108 | 0.0 | 0.0 | 0.00 | 0.00 | 0.00 | 86 | 1007.0 |
| 20260901062355 | 15 | 109 | 0.0 | 0.0 | 0.00 | 0.00 | 0.00 | 85 | 1007.0 |
| 20260901061322 | 15 | 108 | 0.0 | 0.0 | 0.00 | 0.00 | 0.00 | 84 | 1007.0 |
| 20260901060305 | 15 | 109 | 0.0 | 0.0 | 0.00 | 0.00 | 0.00 | 83 | 1007.0 |
| 20260901055256 | 15 | 109 | 0.0 | 0.0 | 0.00 | 0.00 | 0.00 | 82 | 1007.2 |
| 20260901054244 | 15 | 108 | 0.0 | 0.0 | 0.00 | 0.00 | 0.00 | 83 | 1007.1 |
| 20260901053228 | 15 | 108 | 0.0 | 0.0 | 0.00 | 0.00 | 0.00 | 82 | 1007.2 |
| 20260901052226 | 16 | 108 | 0.0 | 0.0 | 0.00 | 0.00 | 0.00 | 81 | 1007.2 |
| 20260901051159 | 16 | 109 | 0.0 | 0.0 | 0.00 | 0.00 | 0.00 | 79 | 1007.1 |
| 20260901050158 | 16 | 108 | 0.0 | 0.0 | 0.00 | 0.00 | 0.00 | 80 | 1007.2 |
| 20260901045151 | 16 | 108 | 0.0 | 0.0 | 0.00 | 0.00 | 0.00 | 79 | 1007.2 |
| 20260901044138 | 16 | 108 | 0.0 | 0.0 | 0.00 | 0.00 | 0.00 | 78 | 1007.4 |
| 20260901043118 | 17 | 108 | 0.0 | 0.0 | 0.00 | 0.00 | 0.00 | 76 | 1007.1 |
| 20260901042047 | 17 | 108 | 0.0 | 0.0 | 0.00 | 0.00 | 0.00 | 75 | 1007.4 |
| 20260901041016 | 17 | 107 | 0.0 | 0.0 | 0.00 | 0.00 | 0.00 | 76 | 1007.2 |
| 20260901040002 | 17 | 105 | 0.0 | 0.0 | 0.00 | 0.00 | 0.00 | 73 | 1007.2 |
| 20260901034923 | 17 | 101 | 0.0 | 0.0 | 0.00 | 0.00 | 0.00 | 73 | 1007.0 |
| 20260901033912 | 18 | 108 | 0.0 | 0.0 | 0.00 | 0.00 | 0.00 | 72 | 1006.9 |
| 20260901032840 | 18 | 102 | 0.0 | 0.0 | 0.00 | 0.00 | 0.00 | 72 | 1006.7 |
| 20260901031822 | 18 | 104 | 0.0 | 0.0 | 0.00 | 0.00 | 0.00 | 71 | 1006.8 |
| 20260901030743 | 18 | 102 | 0.0 | 0.0 | 0.00 | 0.00 | 0.00 | 69 | 1006.6 |
| 20260901025730 | 19 | 102 | 0.0 | 0.0 | 0.00 | 0.00 | 0.00 | 67 | 1006.6 |
| 20260901024705 | 20 | 104 | 0.0 | 0.0 | 0.00 | 0.00 | 0.00 | 64 | 1006.5 |
| 20260901023647 | 20 | 85 | 0.0 | 1.6 | 0.00 | 0.00 | 0.00 | 63 | 1006.8 |
| 20260901022624 | 20 | 71 | 3.2 | 4.8 | 0.00 | 0.00 | 0.00 | 62 | 1006.8 |
| 20260901021602 | 21 | 60 | 3.2 | 4.8 | 0.00 | 0.00 | 0.00 | 62 | 1006.7 |
| 20260901020529 | 21 | 99 | 1.6 | 1.6 | 0.00 | 0.00 | 0.00 | 61 | 1006.8 |
| 20260901015521 | 21 | 90 | 0.0 | 0.0 | 0.00 | 0.00 | 0.00 | 61 | 1006.7 |
| 20260901014457 | 22 | 82 | 0.0 | 0.0 | 0.00 | 0.00 | 0.00 | 60 | 1006.8 |
| 20260901013418 | 22 | 93 | 0.0 | 0.0 | 0.00 | 0.00 | 0.00 | 59 | 1006.8 |
| 20260901012409 | 23 | 88 | 4.8 | 4.8 | 0.00 | 0.00 | 0.00 | 56 | 1006.7 |
| 20260901011357 | 23 | 104 | 1.6 | 1.6 | 0.00 | 0.00 | 0.00 | 56 | 1006.9 |
| 20260901010333 | 22 | 89 | 3.2 | 4.8 | 0.00 | 0.00 | 0.00 | 56 | 1006.7 |
| 20260901005308 | 23 | 128 | 1.6 | 3.2 | 0.00 | 0.00 | 0.00 | 54 | 1006.7 |
| 20260901004305 | 23 | 275 | 3.2 | 4.8 | 0.00 | 0.00 | 0.00 | 53 | 1006.5 |
| 20260901003231 | 24 | 98 | 1.6 | 1.6 | 0.00 | 0.00 | 0.00 | 51 | 1006.6 |
| 20260901002222 | 25 | 136 | 0.0 | 3.2 | 0.00 | 0.00 | 0.00 | 50 | 1006.7 |
| 20260901001201 | 25 | 237 | 6.4 | 9.7 | 0.00 | 0.00 | 0.00 | 48 | 1006.9 |
| 20260901000136 | 26 | 105 | 0.0 | 0.0 | 0.00 | 0.00 | 0.00 | 49 | 1006.9 |
| 20260831235133 | 25 | 87 | 1.6 | 1.6 | 0.00 | 0.00 | 0.00 | 49 | 1007.0 |
| 20260831234109 | 25 | 89 | 3.2 | 3.2 | 0.00 | 0.00 | 0.00 | 49 | 1007.1 |
| 20260831233053 | 25 | 82 | 4.8 | 4.8 | 0.00 | 0.00 | 0.00 | 49 | 1007.3 |
| 20260831232014 | 25 | 40 | 1.6 | 3.2 | 0.00 | 0.00 | 0.00 | 50 | 1007.3 |
| 20260831230952 | 25 | 65 | 3.2 | 4.8 | 0.00 | 0.00 | 0.00 | 49 | 1007.3 |
| 20260831225946 | 25 | 63 | 3.2 | 3.2 | 0.00 | 0.00 | 0.00 | 50 | 1007.7 |
| 20260831224925 | 25 | 137 | 0.0 | 1.6 | 0.00 | 0.00 | 0.00 | 49 | 1007.6 |
| 20260831223910 | 25 | 357 | 6.4 | 9.7 | 0.00 | 0.00 | 0.00 | 49 | 1007.8 |
| 20260831222905 | 25 | 72 | 3.2 | 3.2 | 0.00 | 0.00 | 0.00 | 50 | 1007.8 |
| 20260831221858 | 25 | 131 | 1.6 | 3.2 | 0.00 | 0.00 | 0.00 | 50 | 1007.9 |
| 20260831220816 | 23 | 105 | 0.0 | 0.0 | 0.00 | 0.00 | 0.00 | 53 | 1008.1 |
| 20260831215759 | 23 | 78 | 4.8 | 4.8 | 0.00 | 0.00 | 0.00 | 52 | 1008.4 |
| 20260831214730 | 23 | 31 | 3.2 | 3.2 | 0.00 | 0.00 | 0.00 | 53 | 1008.3 |
| 20260831213721 | 23 | 9 | 6.4 | 6.4 | 0.00 | 0.00 | 0.00 | 52 | 1008.2 |
| 20260831212705 | 23 | 159 | 1.6 | 4.8 | 0.00 | 0.00 | 0.00 | 53 | 1008.5 |
| 20260831211650 | 23 | 104 | 0.0 | 0.0 | 0.00 | 0.00 | 0.00 | 55 | 1008.8 |
| 20260831210632 | 23 | 275 | 3.2 | 3.2 | 0.00 | 0.00 | 0.00 | 53 | 1008.6 |
| 20260831205621 | 22 | 355 | 6.4 | 6.4 | 0.00 | 0.00 | 0.00 | 55 | 1008.9 |
| 20260831204551 | 22 | 135 | 4.8 | 6.4 | 0.00 | 0.00 | 0.00 | 56 | 1009.0 |
| 20260831203548 | 22 | 103 | 1.6 | 3.2 | 0.00 | 0.00 | 0.00 | 57 | 1009.1 |
| 20260831202530 | 21 | 135 | 3.2 | 6.4 | 0.00 | 0.00 | 0.00 | 58 | 1009.3 |
| 20260831201458 | 22 | 124 | 0.0 | 0.0 | 0.00 | 0.00 | 0.00 | 58 | 1009.1 |
| 20260831200430 | 21 | 329 | 4.8 | 4.8 | 0.00 | 0.00 | 0.00 | 60 | 1009.5 |
| 20260831195411 | 21 | 287 | 3.2 | 4.8 | 0.00 | 0.00 | 0.00 | 59 | 1009.7 |
| 20260831194347 | 21 | 101 | 3.2 | 3.2 | 0.00 | 0.00 | 0.00 | 61 | 1009.9 |
| 20260831193335 | 21 | 177 | 3.2 | 3.2 | 0.00 | 0.00 | 0.00 | 61 | 1009.9 |